STARLINK-32886, 62807

Orbit data source: Space-Track

STARLINK-32886, 62807 is a payload satellite owned by SpaceX/Seattle (US) in LEO that was launched on Fri, 24 Jan 2025 UTC via an FALCON 9 launch vehicle from the Air Force Western Test Range (AFWTR). Payload-class satellites include a variety of spacecraft equipped with specific instruments for various scientific and technological missions. These include communications satellites like Starlink; space stations such as the ISS; scientific satellites like the Hubble; Earth observation satellites from companies like Planet Labs, Umbra, and HawkEye 360; GPS; miniature CubeSats for education and research; and military/defense satellites.

Loading next visibility...
Identifier
62807, 2025-018B
Orbit
LEO
Last TLE update
12 hours ago
Origin
Manufacturer
SpaceX/Seattle
Mission
Operational Commercial Communications
Bus & Motor
STARLINK V2M, Unknown motor
Mass
730 kg wet, ~700 kg dry
Launch date (UTC)
2025-01-24 (3 months ago)
Launch vehicle
FALCON 9
Launch site
Air Force Western Test Range (AFWTR)
Object type
Payload
Rocket body
Debris
Shape & HBR
Box + 2 Pan, 29 m
Radar Cross Section
33.884 m², Large (>1 m²)

Expand to show TLE details & history

TLE from 12 hours ago
0 STARLINK-32886
1 62807U 25018B   25128.77363972 -.00000710  00000-0 -77685-5 0  9999
2 62807  53.1621 287.3736 0001049  60.3947 299.7162 15.39624154 16476
Epoch: 2025-05-08T18:34Z
Definitive object data (Epoch: 2025-05-08T18:34:02.471Z)
Latitude
-0.00006°
Longitude
142.02394°
Altitude
447.769 km
Speed
7.645 km/s
True Right ascension
19h 09m 29s
True Declination
0° 00' 00"
Sunlit
Object was in full shadow at TLE epoch
Visualization TLE readout
Latitude
-9.76212°
Longitude
-32.91681°
Altitude
450.365 km
Speed
7.642 km/s
Apparent Right ascension
05h 26m 16s
Apparent Declination
-29° 26' 17"
Sunlit
Object is in daylight
Visualization observer readout
Local Sidereal Time
14:27:01
Azimuth
271.818° WNW
Elevation
-52.113°
Doppler factor
1
Orbital elements
Apogee altitude
448.193 km
Perigee altitude
446.761 km
Semi-major axis
6,825.614 km
Eccentricity
0.0001049
Inclination
53.1621°
RAAN
287.3736°
Arg. of periapsis
60.3947°
True anomaly
299.70576°
Mean anomaly
299.7162°
Eccentric anomaly
299.71098°
Mean motion
3.84885 °/min
BSTAR
-0.0000077685
Orbital period
93.53 mins
Loading maneuver chart data...
Loading SW <> Apogee altitude chart data...
Loading historical data...
Loading historical data...
Loading historical data...
Loading historical data...
Loading historical data...
Loading historical data...
Loading historical data...

STARLINK-32886 Visibility forecast

Observer location: undefined°, undefined°

Span
Click to sort rows by Start time (UTC) header in descending order
Start Az.
Max El. time (UTC)
Max El. Az.
Max El.
End time (UTC)
End Az.
5 mins2025-05-09 13:28:12.949Z241.802° WSW2025-05-09 13:30:12.949Z358.806° N42.675°2025-05-09 13:33:12.949Z46.034° ENE
5 mins2025-05-09 20:00:12.949Z310.843° NW2025-05-09 20:02:12.949Z317.28° NNW43.815°2025-05-09 20:05:12.949Z130.009° SE
|